{"data":{"norad_id":55742,"intl_designator":"2023-028B","name":"STARLINK-5594","alt_names":[],"object_type":"PAYLOAD","status":"ACTIVE","operator":null,"country":"US","launch_date":"2023-03-03","launch_site_code":"AFWTR","launch_vehicle":null,"mission":null,"orbit_class":"UNKNOWN","rcs_meters":null,"size_class":null,"mass_kg":null,"dimensions":null,"purposes":["comms"],"wikipedia_slug":null,"has_3d_model":false,"image_url":null,"decayed_at":null,"tle_current":{"epoch":"2026-09-20T22:00:03.000096Z","epoch_age_seconds":67134,"freshness":"FRESH","line1":"1 55742U 23028B   26263.91670139  .00064806  00000+0  41409-2 0  9996","line2":"2 55742  70.0007 112.2428 0004029 275.9671  62.1758 15.08271734  5711","mean_motion":15.08271734,"eccentricity":0.0004029,"inclination_deg":70.0007,"raan_deg":112.2428,"arg_perigee_deg":275.9671,"mean_anomaly_deg":62.1758,"bstar":0.0041409,"rev_number":571,"period_min":95.473512334615,"perigee_km":538.6929820719,"apogee_km":544.2688101726,"semimajor_km":6919.6178961223,"source":"CELESTRAK","updated_at":"2026-09-21T09:00:33.311588Z"}}}